This is the latest recevied weather packets stored in our database for station/object KF4CQ. If no packets are shown the sender has not sent any weather packets the latest 10 day(s).
| Time | Temp. | Humidity | Pressure | Rain* | Wind** | Luminosity | Snow |
|---|---|---|---|---|---|---|---|
| 1777657338 | 31.11° C | 52% | 1012.6 hPa | 0 mm | - | 141 W/m² | - |
| 1777657036 | 32.22° C | 52% | 1012.7 hPa | 0 mm | - | 154 W/m² | - |
| 1777656733 | 31.67° C | 52% | 1012.5 hPa | 0 mm | - | 891 W/m² | - |
| 1777656429 | 32.78° C | 51% | 1012.7 hPa | 0 mm | - | 201 W/m² | - |
| 1777656124 | 32.78° C | 51% | 1012.8 hPa | 0 mm | - | 849 W/m² | - |
| 1777655820 | 32.22° C | 51% | 1012.9 hPa | 0 mm | - | 825 W/m² | - |
| 1777655517 | 31.67° C | 52% | 1012.7 hPa | 0 mm | - | 790 W/m² | - |
| 1777655214 | 31.67° C | 54% | 1012.9 hPa | 0 mm | - | 830 W/m² | - |
| 1777654911 | 31.67° C | 54% | 1013 hPa | 0 mm | - | 793 W/m² | - |
| 1777654608 | 31.11° C | 56% | 1013 hPa | 0 mm | - | 215 W/m² | - |
| 1777654305 | 31.11° C | 54% | 1013.2 hPa | 0 mm | - | 835 W/m² | - |
| 1777654004 | 31.67° C | 56% | 1013.3 hPa | 0 mm | - | 764 W/m² | - |
| 1777653396 | 31.11° C | 56% | 1013.2 hPa | 0 mm | - | 154 W/m² | - |
| 1777653093 | 30.56° C | 57% | 1013.4 hPa | 0 mm | - | 775 W/m² | - |
| 1777652789 | 31.11° C | 55% | 1013.3 hPa | 0 mm | - | 748 W/m² | - |
| 1777652486 | 30.56° C | 56% | 1013.6 hPa | 0 mm | - | 737 W/m² | - |
| 1777652184 | 30.56° C | 56% | 1013.6 hPa | 0 mm | - | 729 W/m² | - |
| 1777651881 | 30.56° C | 57% | 1013.6 hPa | 0 mm | - | 718 W/m² | - |
| 1777651577 | 30.56° C | 58% | 1013.8 hPa | 0 mm | - | 711 W/m² | - |
| 1777651274 | 30.56° C | 59% | 1013.8 hPa | 0 mm | - | 700 W/m² | - |
| 1777650971 | 30° C | 60% | 1014 hPa | 0 mm | - | 684 W/m² | - |
| 1777650668 | 30° C | 61% | 1013.9 hPa | 0 mm | - | 681 W/m² | - |
| 1777650062 | 30° C | 59% | 1013.8 hPa | 0 mm | - | 668 W/m² | - |
| 1777649759 | 30° C | 61% | 1014 hPa | 0 mm | - | 659 W/m² | - |
| 1777649456 | 28.89° C | 65% | 1013.9 hPa | 0 mm | - | 641 W/m² | - |
* Rain latest hour (hover to see other rain measurements)
** Current wind speed in m/s (hover to see current wind gust speed)